Location: Newark
(45.9456°N, 15.4064°E)
Time: 11:36:52
(UTC+00:00)

Courier 1B Rocket - Pass Details

Date: 24 January 2020
Orbit: 920 x 1202 km, 28.2° (Epoch: 22 February)

Event Time Altitude Azimuth Distance (km) Brightness Sun altitude
Rises 13:46:02 0° 243° (WSW) 3,754 9.3 15.9°
Reaches altitude 10° 13:50:06 10° 221° (SW) 2,742 10.4 15.5°
Maximum altitude 13:53:31 15° 189° (S) 2,371 8.3 15.1°
Drops below altitude 10° 13:56:51 10° 157° (SSE) 2,658 7.7 14.7°
Sets 14:00:42 0° 135° (SE) 3,568 8.0 14.3°
